KE6LRO Weather Reports


time (UTC)temp
C
wind
direction
speed
KPH
gust
KPH
rain 1hr
cm
rain 24hr
cm
rain mn
cm
humidity
%
barometer
mb
20260904013726 13 258 0.0 0.0 0.00 0.15 0.15 79 1015.7
20260904013222 13 258 0.0 0.0 0.00 0.15 0.15 79 1015.7
20260904012718 13 258 0.0 0.0 0.00 0.15 0.15 76 1015.9
20260904012217 13 259 0.0 0.0 0.00 0.15 0.15 78 1015.6
20260904011716 14 259 0.0 0.0 0.00 0.15 0.15 79 1015.7
20260904011212 14 259 0.0 0.0 0.00 0.15 0.15 78 1015.9
20260904010706 14 259 0.0 0.0 0.00 0.15 0.15 77 1015.8
20260904010204 15 259 0.0 0.0 0.00 0.15 0.15 75 1015.8
20260904005658 15 258 0.0 0.0 0.00 0.15 0.15 71 1015.9
20260904005154 16 258 0.0 0.0 0.00 0.15 0.15 69 1015.9
20260904004650 16 258 0.0 0.0 0.00 0.15 0.15 67 1016.3
20260904004149 16 259 0.0 1.6 0.00 0.15 0.15 67 1016.3
20260904003645 16 258 0.0 1.6 0.00 0.15 0.15 66 1016.4
20260904003141 16 223 1.6 1.6 0.00 0.15 0.15 66 1016.6
20260904002637 16 197 0.0 0.0 0.00 0.15 0.15 65 1016.7
20260904002132 16 171 0.0 0.0 0.00 0.15 0.15 65 1016.9
20260904001627 16 182 1.6 1.6 0.00 0.15 0.15 64 1016.8
20260904001126 16 235 0.0 0.0 0.00 0.15 0.15 63 1016.9
20260904000621 16 263 0.0 0.0 0.00 0.15 0.15 65 1016.8
20260904000117 16 236 0.0 0.0 0.00 0.15 0.15 65 1016.9
20260903235616 16 102 0.0 1.6 0.00 0.15 0.15 64 1016.9
20260903235113 16 281 1.6 3.2 0.00 0.15 0.15 63 1016.7
20260903234607 17 294 3.2 4.8 0.00 0.15 0.15 62 1016.9
20260903234103 16 201 3.2 4.8 0.00 0.15 0.15 63 1016.9
20260903233559 16 213 3.2 3.2 0.00 0.15 0.15 63 1017.2
20260903233054 16 172 1.6 9.7 0.00 0.15 0.15 63 1017.0
20260903232549 15 238 3.2 4.8 0.00 0.15 0.15 65 1017.0
20260903232044 15 190 4.8 8.0 0.00 0.15 0.15 65 1017.2
20260903231533 15 186 4.8 4.8 0.00 0.15 0.15 66 1017.3
20260903231027 15 181 4.8 8.0 0.00 0.15 0.15 66 1017.4
20260903230524 15 167 4.8 11.3 0.00 0.15 0.15 64 1017.6
20260903230022 15 162 4.8 9.7 0.00 0.15 0.15 66 1017.3
20260903225520 15 190 4.8 8.0 0.00 0.15 0.15 66 1017.4
20260903225016 15 192 4.8 14.5 0.00 0.15 0.15 66 1017.4
20260903224512 15 187 6.4 8.0 0.00 0.15 0.15 67 1017.7
20260903224008 15 159 3.2 3.2 0.00 0.15 0.15 65 1017.4
20260903223507 15 187 3.2 8.0 0.00 0.15 0.15 67 1017.7
20260903223007 16 264 6.4 12.9 0.00 0.15 0.15 63 1017.4
20260903222502 16 202 1.6 4.8 0.00 0.15 0.15 59 1017.6
20260903222001 16 44 0.0 0.0 0.00 0.15 0.15 58 1017.6
20260903221455 16 54 0.0 4.8 0.00 0.15 0.15 58 1017.4
20260903220952 16 352 3.2 8.0 0.00 0.15 0.15 59 1017.4
20260903220447 16 39 4.8 12.9 0.00 0.15 0.15 61 1017.2
20260903215944 16 305 4.8 11.3 0.00 0.15 0.15 61 1017.3
20260903215441 16 27 0.0 4.8 0.00 0.15 0.15 62 1017.3
20260903214939 16 20 6.4 12.9 0.00 0.15 0.15 62 1017.2
20260903214436 16 357 6.4 14.5 0.00 0.15 0.15 62 1017.3
20260903213935 17 355 6.4 16.1 0.00 0.15 0.15 60 1017.3
20260903213430 17 16 4.8 9.7 0.00 0.15 0.15 60 1017.3
20260903212926 17 331 6.4 11.3 0.00 0.15 0.15 60 1017.4
20260903212422 17 318 6.4 8.0 0.00 0.15 0.15 59 1017.4
20260903211921 17 332 6.4 8.0 0.00 0.15 0.15 59 1017.2
20260903211417 16 6 6.4 14.5 0.00 0.15 0.15 61 1017.0
20260903210914 16 37 6.4 9.7 0.00 0.15 0.15 63 1017.1
20260903210413 16 2 4.8 8.0 0.00 0.15 0.15 63 1017.2
20260903205908 16 311 4.8 9.7 0.00 0.15 0.15 62 1017.2
20260903205408 16 53 0.0 4.8 0.00 0.15 0.15 64 1017.3
20260903204902 16 9 6.4 8.0 0.00 0.15 0.15 66 1017.3
20260903204359 16 40 0.0 3.2 0.00 0.15 0.15 68 1017.2
20260903203854 16 357 3.2 8.0 0.00 0.15 0.15 68 1017.4
20260903203350 16 289 0.0 1.6 0.00 0.15 0.15 69 1017.2
20260903202849 16 321 1.6 3.2 0.00 0.15 0.15 69 1017.3
20260903202346 16 301 0.0 1.6 0.00 0.15 0.15 69 1017.4
20260903201845 16 114 1.6 4.8 0.00 0.15 0.15 71 1017.3
20260903201341 15 85 1.6 8.0 0.00 0.15 0.15 75 1017.3
20260903200839 15 120 1.6 3.2 0.13 0.15 0.15 81 1017.4
20260903200335 14 220 3.2 3.2 0.43 0.15 0.15 76 1017.4
20260903195830 14 226 1.6 3.2 0.48 0.13 0.13 86 1017.6
20260903195326 15 233 3.2 3.2 0.18 0.08 0.08 76 1017.4
20260903194820 15 337 1.6 3.2 0.00 0.05 0.05 74 1017.3
20260903194316 15 29 4.8 9.7 0.00 0.05 0.05 70 1017.2
20260903193812 15 353 4.8 8.0 0.00 0.05 0.05 70 1017.3
20260903193308 15 24 8.0 11.3 0.00 0.05 0.05 69 1017.1
20260903192803 15 55 1.6 11.3 0.00 0.05 0.05 70 1017.1
20260903192258 15 34 8.0 12.9 0.00 0.05 0.05 69 1017.1
20260903191754 16 30 1.6 4.8 0.00 0.05 0.05 69 1017.3
20260903191250 15 39 4.8 12.9 0.00 0.05 0.05 70 1017.3
20260903190744 15 68 0.0 1.6 0.00 0.05 0.05 72 1017.4
20260903190244 15 31 4.8 4.8 0.00 0.05 0.05 73 1017.3
20260903185739 15 22 3.2 4.8 0.00 0.05 0.05 73 1017.6
20260903185238 14 354 4.8 8.0 0.00 0.05 0.05 73 1017.3
20260903184735 14 5 6.4 11.3 0.00 0.05 0.05 73 1017.3
20260903184231 14 40 8.0 9.7 0.00 0.05 0.05 73 1017.4
20260903183726 14 24 4.8 11.3 0.00 0.05 0.05 72 1017.4
20260903183220 15 4 6.4 8.0 0.00 0.05 0.05 72 1017.4
20260903182719 15 358 1.6 9.7 0.00 0.05 0.05 72 1017.7
20260903182215 15 330 4.8 8.0 0.00 0.05 0.05 72 1017.4
20260903181713 15 19 4.8 4.8 0.00 0.05 0.05 70 1017.4
20260903181203 15 346 1.6 8.0 0.00 0.05 0.05 70 1017.7
20260903180659 15 327 4.8 4.8 0.00 0.05 0.05 70 1017.3
20260903180157 14 314 3.2 3.2 0.00 0.05 0.05 71 1017.3
20260903175657 15 30 3.2 8.0 0.00 0.05 0.05 68 1017.3
20260903175151 14 47 1.6 3.2 0.00 0.05 0.05 69 1017.3
20260903174651 15 20 3.2 4.8 0.00 0.05 0.05 68 1017.4
20260903174146 15 30 0.0 4.8 0.00 0.05 0.05 68 1017.3
20260903173641 15 35 0.0 1.6 0.00 0.05 0.05 69 1017.6
20260903173137 15 10 4.8 4.8 0.00 0.05 0.05 65 1017.7
20260903172637 15 46 0.0 3.2 0.00 0.05 0.05 68 1017.6
20260903172132 15 8 6.4 9.7 0.00 0.05 0.05 68 1017.6
20260903171632 14 281 1.6 3.2 0.00 0.05 0.05 69 1017.3
20260903171128 13 326 8.0 11.3 0.00 0.05 0.05 72 1017.6
20260903170627 14 255 1.6 8.0 0.00 0.05 0.05 72 1017.8
20260903170123 13 312 4.8 4.8 0.00 0.05 0.05 83 1017.6
20260903165620 12 31 1.6 1.6 0.00 0.05 0.05 87 1017.4
20260903165115 12 19 0.0 0.0 0.00 0.05 0.05 91 1017.8
20260903164610 11 6 0.0 1.6 0.00 0.05 0.05 93 1017.8
20260903164106 11 11 0.0 3.2 0.00 0.05 0.05 95 1017.9
20260903163600 11 329 3.2 3.2 0.00 0.05 0.05 94 1017.8
20260903163056 11 319 3.2 3.2 0.00 0.05 0.05 95 1017.6
20260903162553 11 27 1.6 1.6 0.00 0.05 0.05 94 1017.9
20260903162048 11 47 0.0 0.0 0.00 0.05 0.05 94 1017.7
20260903161543 11 164 0.0 0.0 0.00 0.05 0.05 95 1017.9
20260903161039 10 180 0.0 0.0 0.00 0.05 0.05 96 1017.4
20260903160538 10 175 0.0 3.2 0.00 0.05 0.05 97 1017.7
20260903160033 10 155 0.0 1.6 0.00 0.05 0.05 98 1017.6
20260903155531 10 184 0.0 0.0 0.00 0.05 0.05 98 1017.6
20260903155027 10 173 0.0 1.6 0.00 0.05 0.05 98 1017.7
20260903154524 10 293 0.0 3.2 0.00 0.05 0.05 99 1017.7
20260903154020 10 222 0.0 1.6 0.00 0.05 0.05 99 1017.6
20260903153514 10 156 1.6 3.2 0.00 0.05 0.05 99 1017.6
20260903153011 10 170 0.0 1.6 0.00 0.05 0.05 99 1017.6
20260903152507 9 92 0.0 0.0 0.00 0.05 0.05 99 1017.3
20260903152003 8 112 0.0 1.6 0.00 0.05 0.05 99 1017.6
20260903151502 8 75 0.0 0.0 0.00 0.05 0.05 99 1017.4
20260903150957 8 172 0.0 0.0 0.00 0.05 0.05 99 1017.4
20260903150457 8 122 0.0 0.0 0.00 0.05 0.05 99 1017.7
20260903145951 7 131 0.0 0.0 0.00 0.05 0.05 99 1017.7
20260903145447 7 121 0.0 0.0 0.00 0.05 0.05 99 1017.7
20260903144942 7 96 0.0 0.0 0.00 0.05 0.05 99 1017.7
20260903144441 7 277 0.0 0.0 0.00 0.05 0.05 99 1017.8
20260903143937 7 260 1.6 1.6 0.00 0.05 0.05 99 1017.7
20260903143433 7 104 0.0 0.0 0.00 0.05 0.05 99 1017.8
20260903142929 7 124 0.0 0.0 0.00 0.05 0.05 99 1017.6
20260903142424 7 114 0.0 1.6 0.00 0.05 0.05 99 1017.4
20260903141920 7 106 0.0 0.0 0.00 0.05 0.05 99 1017.3
20260903141410 7 107 0.0 0.0 0.13 0.05 0.05 99 1017.6
20260903140906 7 107 0.0 0.0 0.13 0.05 0.05 99 1017.3
20260903140400 6 101 0.0 0.0 0.00 0.03 0.03 99 1017.2
20260903135856 6 101 0.0 0.0 0.18 0.03 0.03 99 1017.0
20260903135351 6 100 0.0 0.0 0.18 0.03 0.03 99 1017.2
20260903134850 6 99 0.0 0.0 0.00 0.00 0.00 99 1017.1
20260903134345 6 98 0.0 0.0 0.00 0.00 0.00 99 1016.9
20260903133843 6 100 0.0 0.0 0.00 0.00 0.00 99 1017.1
20260903133339 6 98 0.0 0.0 0.00 0.00 0.00 99 1016.8
20260903132833 6 97 0.0 0.0 0.00 0.00 0.00 99 1016.8
20260903132329 6 97 0.0 0.0 0.00 0.00 0.00 99 1016.3
20260903131824 6 99 0.0 0.0 0.00 0.00 0.00 99 1016.4
20260903131324 6 49 0.0 0.0 0.00 0.00 0.00 99 1016.3
20260903130823 6 347 0.0 0.0 0.00 0.00 0.00 99 1016.4
20260903130318 6 17 0.0 0.0 0.00 0.00 0.00 99 1016.2
20260903125817 6 22 0.0 0.0 0.00 0.00 0.00 99 1016.3
20260903125312 6 22 0.0 0.0 0.00 0.00 0.00 99 1016.2
20260903124811 6 24 0.0 0.0 0.00 0.00 0.00 99 1016.1
20260903124307 6 109 0.0 0.0 0.00 0.00 0.00 99 1016.1
20260903123805 6 109 0.0 0.0 0.00 0.00 0.00 99 1016.0
20260903123305 6 110 0.0 0.0 0.00 0.00 0.00 99 1015.9
20260903122803 6 110 0.0 0.0 0.00 0.00 0.00 99 1016.2
20260903122258 6 110 0.0 0.0 0.00 0.00 0.00 99 1015.9
20260903121756 6 110 0.0 0.0 0.00 0.00 0.00 99 1016.1
20260903121254 6 110 0.0 0.0 0.00 0.00 0.00 99 1016.0
20260903120749 6 110 0.0 0.0 0.00 0.00 0.00 99 1016.0
20260903120247 6 110 0.0 0.0 0.00 0.00 0.00 99 1016.0
20260903115746 6 110 0.0 0.0 0.00 0.00 0.00 99 1015.8
20260903115241 6 107 0.0 0.0 0.00 0.00 0.00 99 1015.9
20260903114735 6 108 0.0 1.6 0.00 0.00 0.00 99 1016.0
20260903114232 6 24 0.0 0.0 0.00 0.00 0.00 99 1016.1
20260903113726 6 24 0.0 0.0 0.00 0.00 0.00 99 1016.0
20260903113223 6 2 0.0 0.0 0.00 0.00 0.00 99 1016.1
20260903112713 6 319 0.0 0.0 0.00 0.00 0.00 99 1016.2
20260903112209 6 16 0.0 0.0 0.00 0.00 0.00 99 1016.0
20260903111707 6 80 0.0 1.6 0.00 0.00 0.00 99 1016.1
20260903111203 6 48 0.0 0.0 0.00 0.00 0.00 99 1016.0
20260903110659 6 91 0.0 0.0 0.00 0.00 0.00 99 1015.9
20260903110154 6 91 0.0 0.0 0.00 0.00 0.00 99 1016.0
20260903105654 6 91 0.0 0.0 0.00 0.00 0.00 99 1016.1
20260903105149 6 91 0.0 0.0 0.00 0.00 0.00 99 1016.1
20260903104648 6 91 0.0 0.0 0.00 0.00 0.00 99 1015.9
20260903104144 6 92 0.0 0.0 0.00 0.00 0.00 99 1015.9
20260903103640 6 29 0.0 0.0 0.00 0.00 0.00 99 1015.9
20260903103136 6 37 0.0 0.0 0.00 0.00 0.00 99 1015.9
20260903102631 6 37 0.0 0.0 0.00 0.00 0.00 99 1015.9
20260903102130 6 37 0.0 0.0 0.00 0.00 0.00 99 1016.0
20260903101629 6 39 0.0 0.0 0.00 0.00 0.00 99 1015.9
20260903101126 6 39 0.0 0.0 0.00 0.00 0.00 99 1016.0
20260903100625 6 32 0.0 0.0 0.00 0.00 0.00 99 1016.0
20260903100125 6 310 1.6 3.2 0.00 0.00 0.00 99 1016.2
20260903095622 5 59 0.0 0.0 0.00 0.00 0.00 99 1016.0
20260903095122 5 60 0.0 0.0 0.00 0.00 0.00 99 1016.0
20260903094617 5 85 0.0 0.0 0.00 0.00 0.00 99 1015.9
20260903094113 5 87 0.0 0.0 0.00 0.00 0.00 99 1016.0
20260903093608 5 87 0.0 0.0 0.00 0.00 0.00 99 1016.0
20260903093103 5 87 0.0 0.0 0.00 0.00 0.00 99 1015.8
20260903092602 5 92 0.0 0.0 0.00 0.00 0.00 99 1016.0
20260903092057 5 207 0.0 0.0 0.00 0.00 0.00 99 1015.9
20260903091555 5 121 0.0 0.0 0.00 0.00 0.00 99 1015.8
20260903091050 5 119 0.0 0.0 0.00 0.00 0.00 99 1016.0
20260903090546 5 120 0.0 0.0 0.00 0.00 0.00 99 1015.9
20260903090045 5 55 0.0 0.0 0.00 0.00 0.00 99 1015.9
20260903085543 5 332 0.0 0.0 0.00 0.00 0.00 99 1016.0
20260903085039 5 211 0.0 0.0 0.00 0.00 0.00 99 1015.9
20260903084537 5 102 0.0 0.0 0.00 0.00 0.00 99 1015.8
20260903084032 5 97 0.0 0.0 0.00 0.00 0.00 99 1016.1
20260903083528 5 91 0.0 0.0 0.00 0.00 0.00 99 1015.8
20260903083028 5 159 0.0 0.0 0.00 0.00 0.00 99 1016.0
20260903082522 5 249 0.0 0.0 0.00 0.00 0.00 99 1016.2
20260903082018 5 261 0.0 0.0 0.00 0.00 0.00 99 1016.1
20260903081513 5 90 0.0 0.0 0.00 0.00 0.00 99 1016.1
20260903081009 5 137 0.0 0.0 0.00 0.00 0.00 99 1016.0
20260903080504 5 80 0.0 0.0 0.00 0.00 0.00 99 1016.0
20260903080001 5 69 0.0 0.0 0.00 0.00 0.00 99 1016.0
20260903075456 5 70 0.0 0.0 0.00 0.00 0.00 99 1015.8
20260903074951 5 87 0.0 0.0 0.00 0.00 0.00 99 1015.7
20260903074450 5 337 0.0 0.0 0.00 0.00 0.00 99 1015.9
20260903073946 5 28 0.0 0.0 0.00 0.00 0.00 99 1015.6
20260903073441 5 335 0.0 0.0 0.00 0.00 0.00 99 1015.9
20260903072937 5 72 0.0 0.0 0.00 0.00 0.00 99 1015.7
20260903072432 4 42 0.0 0.0 0.00 0.00 0.00 99 1015.6
20260903071929 4 305 0.0 0.0 0.00 0.00 0.00 99 1015.7
20260903071424 4 305 0.0 0.0 0.00 0.00 0.00 99 1015.3
20260903070920 4 305 0.0 0.0 0.00 0.00 0.00 99 1015.8
20260903070420 4 304 0.0 0.0 0.00 0.00 0.00 99 1015.6
20260903065915 4 300 0.0 0.0 0.00 0.00 0.00 99 1015.7
20260903065415 4 301 0.0 0.0 0.00 0.00 0.00 99 1015.4
20260903064914 4 301 0.0 0.0 0.00 0.00 0.00 99 1015.4
20260903064409 5 301 0.0 0.0 0.00 0.00 0.00 99 1015.4
20260903063906 5 325 0.0 0.0 0.00 0.00 0.00 99 1015.4
20260903063401 5 323 0.0 0.0 0.00 0.00 0.00 99 1015.4
20260903062856 5 323 0.0 0.0 0.00 0.00 0.00 99 1015.4
20260903062356 5 323 0.0 0.0 0.00 0.00 0.00 99 1015.6
20260903061852 5 323 0.0 0.0 0.00 0.00 0.00 99 1015.7
20260903061351 5 323 0.0 0.0 0.00 0.00 0.00 99 1015.7
20260903060847 5 321 0.0 0.0 0.00 0.00 0.00 99 1015.6
20260903060346 5 1 0.0 0.0 0.00 0.00 0.00 99 1015.7
20260903055844 5 1 0.0 0.0 0.00 0.10 0.10 99 1015.7
20260903055343 5 1 0.0 0.0 0.00 0.10 0.10 99 1015.6
20260903054838 5 1 0.0 0.0 0.00 0.10 0.10 99 1015.6
20260903054338 5 0 0.0 0.0 0.00 0.10 0.10 99 1015.8
20260903053835 5 10 0.0 0.0 0.00 0.10 0.10 99 1015.7
20260903053329 5 10 0.0 0.0 0.00 0.10 0.10 99 1015.6
20260903052825 5 9 0.0 0.0 0.00 0.10 0.10 99 1015.7
20260903052320 6 9 0.0 0.0 0.00 0.10 0.10 99 1015.8
20260903051816 6 8 0.0 0.0 0.00 0.10 0.10 99 1015.7
20260903051311 5 11 0.0 0.0 0.00 0.10 0.10 99 1015.8
20260903050807 6 11 0.0 0.0 0.00 0.10 0.10 99 1015.9
20260903050306 6 11 0.0 0.0 0.00 0.10 0.10 99 1015.8
20260903045801 6 11 0.0 0.0 0.00 0.10 0.10 99 1015.8
20260903045257 6 9 0.0 0.0 0.00 0.10 0.10 99 1016.0
20260903044753 6 15 0.0 0.0 0.00 0.10 0.10 99 1016.1
20260903044248 6 15 0.0 0.0 0.00 0.10 0.10 99 1016.2
20260903043744 6 15 0.0 0.0 0.00 0.10 0.10 99 1015.9
20260903043244 6 15 0.0 0.0 0.00 0.10 0.10 99 1016.2
20260903042743 6 15 0.0 0.0 0.00 0.10 0.10 99 1016.0
20260903042239 6 15 0.0 0.0 0.00 0.10 0.10 99 1016.1
20260903041735 6 15 0.0 0.0 0.00 0.10 0.10 99 1016.1
20260903041231 6 15 0.0 0.0 0.00 0.10 0.10 99 1016.1
20260903040731 6 15 0.0 0.0 0.00 0.10 0.10 98 1016.3
20260903040225 7 15 0.0 0.0 0.00 0.10 0.10 98 1016.1
20260903035721 7 15 0.0 0.0 0.00 0.10 0.10 98 1016.2
20260903035217 7 15 0.0 0.0 0.00 0.10 0.10 98 1016.0
20260903034716 7 15 0.0 0.0 0.00 0.10 0.10 98 1016.3
20260903034212 7 15 0.0 0.0 0.00 0.10 0.10 98 1016.0
20260903033708 7 15 0.0 0.0 0.00 0.10 0.10 98 1016.2
20260903033208 7 15 0.0 0.0 0.00 0.10 0.10 98 1016.2
20260903032702 7 15 0.0 0.0 0.00 0.10 0.10 97 1016.1
20260903032158 8 15 0.0 0.0 0.00 0.10 0.10 97 1015.9
20260903031654 8 15 0.0 0.0 0.00 0.10 0.10 97 1016.0
20260903031153 8 15 0.0 0.0 0.00 0.10 0.10 97 1015.9
20260903030649 8 14 0.0 0.0 0.00 0.10 0.10 97 1015.9
20260903030145 8 14 0.0 0.0 0.00 0.10 0.10 96 1015.9
20260903025640 8 14 0.0 0.0 0.00 0.10 0.10 95 1015.8
20260903025136 9 14 0.0 0.0 0.00 0.10 0.10 94 1016.0
20260903024631 9 14 0.0 0.0 0.00 0.10 0.10 94 1015.8
20260903024130 10 14 0.0 0.0 0.00 0.10 0.10 94 1015.7
20260903023626 10 14 0.0 0.0 0.00 0.10 0.10 93 1015.8
20260903023125 10 14 0.0 0.0 0.00 0.10 0.10 92 1015.8
20260903022621 10 12 0.0 0.0 0.00 0.10 0.10 92 1015.9
20260903022120 11 12 0.0 0.0 0.00 0.10 0.10 90 1015.8
20260903021619 11 13 0.0 0.0 0.00 0.10 0.10 87 1015.6
20260903021114 11 13 0.0 0.0 0.00 0.10 0.10 86 1015.9
20260903020610 11 10 0.0 0.0 0.00 0.10 0.10 86 1015.7
20260903020110 12 2 0.0 0.0 0.00 0.10 0.10 86 1015.6
20260903015605 12 335 0.0 0.0 0.00 0.10 0.10 84 1015.6
20260903015101 12 283 1.6 3.2 0.00 0.10 0.10 81 1015.7
20260903014600 12 1 1.6 3.2 0.00 0.10 0.10 80 1015.7
20260903014100 13 335 1.6 3.2 0.00 0.10 0.10 81 1015.7